K3CHZ Weather Reports


Display with metric or nautical units.
time (UTC)temp
F
wind
direction
speed
MPH
gust
MPH
rain 1hr
in
rain 24hr
in
rain mn
in
humidity
%
barometer
mb
20260906192637 79 354 0.0 1.0 0.00 0.00 0.00 61 1015.2
20260906192139 79 340 0.0 1.0 0.00 0.00 0.00 56 1015.2
20260906191641 78 304 0.0 0.0 0.00 0.00 0.00 57 1015.2
20260906191140 78 304 0.0 0.0 0.00 0.00 0.00 59 1015.3
20260906190640 79 304 0.0 0.0 0.00 0.00 0.00 59 1015.3
20260906190141 79 304 0.0 1.0 0.00 0.00 0.00 61 1015.4
20260906185640 79 304 0.0 1.0 0.00 0.00 0.00 61 1015.3
20260906185139 79 350 0.0 1.0 0.00 0.00 0.00 58 1015.4
20260906184641 79 355 0.0 0.0 0.00 0.00 0.00 60 1015.5
20260906184141 79 355 0.0 0.0 0.00 0.00 0.00 60 1015.5
20260906183640 79 351 0.0 0.0 0.00 0.00 0.00 59 1015.5
20260906183143 79 354 0.0 0.0 0.00 0.00 0.00 59 1015.5
20260906182637 78 355 0.0 0.0 0.00 0.00 0.00 63 1015.5
20260906182137 78 337 0.0 2.0 0.00 0.00 0.00 62 1015.5
20260906181638 78 324 0.0 2.0 0.00 0.00 0.00 63 1015.4
20260906181136 78 320 0.0 0.0 0.00 0.00 0.00 62 1015.6
20260906180637 78 320 0.0 0.0 0.00 0.00 0.00 63 1015.6
20260906180139 78 320 0.0 0.0 0.00 0.00 0.00 64 1015.6
20260906175637 78 319 0.0 0.0 0.00 0.00 0.00 62 1015.5
20260906175137 78 306 0.0 1.0 0.00 0.00 0.00 61 1015.6
20260906174637 78 284 0.0 1.0 0.00 0.00 0.00 62 1015.7
20260906174137 78 284 0.0 0.0 0.00 0.00 0.00 65 1015.6
20260906173637 78 273 0.0 5.0 0.00 0.00 0.00 63 1015.7
20260906173137 78 183 0.0 5.0 0.00 0.00 0.00 64 1015.7
20260906172640 78 329 0.0 1.0 0.00 0.00 0.00 63 1015.9
20260906172139 78 338 0.0 1.0 0.00 0.00 0.00 63 1015.9
20260906171640 78 338 0.0 0.0 0.00 0.00 0.00 65 1015.9
20260906171140 78 338 0.0 1.0 0.00 0.00 0.00 63 1015.8
20260906170640 77 329 0.0 1.0 0.00 0.00 0.00 65 1015.8
20260906170140 77 312 0.0 1.0 0.00 0.00 0.00 68 1015.9
20260906165640 77 313 0.0 0.0 0.00 0.00 0.00 66 1015.9
20260906165140 77 313 0.0 1.0 0.00 0.00 0.00 66 1016.0
20260906164640 77 313 0.0 2.0 0.00 0.00 0.00 65 1016.0
20260906164139 78 63 0.0 2.0 0.00 0.00 0.00 67 1016.0
20260906163640 77 60 0.0 2.0 0.00 0.00 0.00 66 1016.0
20260906163144 77 54 0.0 1.0 0.00 0.00 0.00 67 1016.1
20260906162641 77 327 0.0 1.0 0.00 0.00 0.00 69 1016.1
20260906162142 77 327 0.0 1.0 0.00 0.00 0.00 69 1016.1
20260906161640 77 327 0.0 2.0 0.00 0.00 0.00 69 1016.0
20260906161140 77 315 0.0 2.0 0.00 0.00 0.00 67 1016.1
20260906160640 77 305 0.0 2.0 0.00 0.00 0.00 68 1016.1
20260906160141 77 278 0.0 3.0 0.00 0.00 0.00 69 1016.1
20260906155640 76 32 0.0 3.0 0.00 0.00 0.00 68 1016.1
20260906155140 76 335 0.0 1.0 0.00 0.00 0.00 70 1016.1
20260906154640 76 335 0.0 1.0 0.00 0.00 0.00 67 1016.1
20260906154140 76 335 0.0 1.0 0.00 0.00 0.00 67 1016.2
20260906153641 76 333 0.0 1.0 0.00 0.00 0.00 71 1016.3
20260906153140 76 333 0.0 1.0 0.00 0.00 0.00 71 1016.3
20260906152637 76 333 0.0 1.0 0.00 0.00 0.00 71 1016.2
20260906152138 76 334 0.0 1.0 0.00 0.00 0.00 69 1016.2
20260906151638 76 334 0.0 1.0 0.00 0.00 0.00 70 1016.2
20260906151138 76 327 0.0 0.0 0.00 0.00 0.00 72 1016.2
20260906150637 76 327 0.0 1.0 0.00 0.00 0.00 72 1016.2
20260906150139 75 327 0.0 1.0 0.00 0.00 0.00 75 1016.2
20260906145636 74 327 0.0 0.0 0.00 0.00 0.00 75 1016.2
20260906145138 74 327 0.0 0.0 0.00 0.00 0.00 72 1016.2
20260906144637 74 327 0.0 0.0 0.00 0.00 0.00 72 1016.0
20260906144138 74 324 0.0 0.0 0.00 0.00 0.00 74 1016.0
20260906143639 73 320 0.0 1.0 0.00 0.00 0.00 76 1016.0
20260906143140 73 322 0.0 1.0 0.00 0.00 0.00 77 1016.0
20260906142639 73 322 0.0 0.0 0.00 0.00 0.00 76 1016.0
20260906142143 73 322 0.0 0.0 0.00 0.00 0.00 78 1016.0
20260906141642 72 322 0.0 0.0 0.00 0.00 0.00 79 1016.0
20260906141142 71 322 0.0 1.0 0.00 0.00 0.00 80 1016.1
20260906140643 71 322 0.0 1.0 0.00 0.00 0.00 82 1016.1
20260906140143 70 322 0.0 1.0 0.00 0.00 0.00 84 1016.0
20260906135644 69 322 0.0 1.0 0.00 0.00 0.00 84 1016.0
20260906135143 68 322 0.0 1.0 0.00 0.00 0.00 83 1015.9
20260906134643 68 322 0.0 1.0 0.00 0.00 0.00 86 1015.9
20260906134143 67 322 0.0 1.0 0.00 0.00 0.00 86 1015.9
20260906133643 67 322 0.0 1.0 0.00 0.00 0.00 87 1015.9
20260906133144 66 322 0.0 0.0 0.00 0.00 0.00 88 1015.8
20260906132643 66 322 0.0 0.0 0.00 0.00 0.00 88 1015.8
20260906132143 66 322 0.0 0.0 0.00 0.00 0.00 87 1015.8
20260906131645 66 322 0.0 0.0 0.00 0.00 0.00 88 1015.8
20260906131144 65 322 0.0 0.0 0.00 0.00 0.00 89 1015.8
20260906130643 65 322 0.0 0.0 0.00 0.00 0.00 89 1015.8
20260906130143 65 322 0.0 0.0 0.00 0.00 0.00 90 1015.8
20260906125644 61 322 0.0 0.0 0.00 0.00 0.00 91 1015.7
20260906125144 61 322 0.0 0.0 0.00 0.00 0.00 92 1015.7
20260906124643 61 322 0.0 0.0 0.00 0.00 0.00 92 1015.7
20260906124144 61 322 0.0 0.0 0.00 0.00 0.00 92 1015.6
20260906123643 61 322 0.0 0.0 0.00 0.00 0.00 92 1015.6
20260906123143 61 322 0.0 0.0 0.00 0.00 0.00 92 1015.5
20260906122640 61 322 0.0 0.0 0.00 0.00 0.00 92 1015.5
20260906122140 61 322 0.0 0.0 0.00 0.00 0.00 92 1015.4
20260906121640 61 322 0.0 0.0 0.00 0.00 0.00 92 1015.3
20260906121141 61 322 0.0 0.0 0.00 0.00 0.00 92 1015.3
20260906120640 61 322 0.0 0.0 0.00 0.00 0.00 92 1015.3
20260906120140 61 322 0.0 0.0 0.00 0.00 0.00 92 1015.2
20260906115640 61 322 0.0 0.0 0.00 0.00 0.00 92 1015.2
20260906115140 61 322 0.0 0.0 0.00 0.00 0.00 92 1015.2
20260906114640 61 322 0.0 0.0 0.00 0.00 0.00 92 1015.1
20260906114140 61 322 0.0 0.0 0.00 0.00 0.00 92 1014.9
20260906113641 61 322 0.0 0.0 0.00 0.00 0.00 92 1014.9
20260906113140 61 322 0.0 0.0 0.00 0.00 0.00 92 1014.9
20260906112639 61 322 0.0 0.0 0.00 0.00 0.00 92 1014.8
20260906112137 61 322 0.0 0.0 0.00 0.00 0.00 92 1014.8
20260906111638 61 322 0.0 0.0 0.00 0.00 0.00 92 1014.7
20260906111137 61 322 0.0 0.0 0.00 0.00 0.00 92 1014.7
20260906110637 61 322 0.0 0.0 0.00 0.00 0.00 92 1014.8
20260906110137 61 322 0.0 0.0 0.00 0.00 0.00 92 1014.7
20260906105637 61 322 0.0 0.0 0.00 0.00 0.00 92 1014.7
20260906105137 61 322 0.0 0.0 0.00 0.00 0.00 92 1014.6
20260906104638 61 322 0.0 0.0 0.00 0.00 0.00 92 1014.5
20260906104137 61 322 0.0 0.0 0.00 0.00 0.00 92 1014.5
20260906103638 61 322 0.0 0.0 0.00 0.00 0.00 92 1014.4
20260906103137 61 322 0.0 0.0 0.00 0.00 0.00 92 1014.3
20260906102638 61 322 0.0 0.0 0.00 0.00 0.00 92 1014.1
20260906102140 61 322 0.0 0.0 0.00 0.00 0.00 92 1014.1
20260906101640 61 322 0.0 0.0 0.00 0.00 0.00 92 1014.0
20260906101140 61 322 0.0 0.0 0.00 0.00 0.00 92 1014.0
20260906100640 61 322 0.0 0.0 0.00 0.00 0.00 92 1013.9
20260906100140 61 322 0.0 0.0 0.00 0.00 0.00 92 1013.8
20260906095641 61 322 0.0 0.0 0.00 0.00 0.00 92 1013.8
20260906095140 61 322 0.0 0.0 0.00 0.00 0.00 92 1013.9
20260906094640 61 322 0.0 0.0 0.00 0.00 0.00 92 1013.8
20260906094140 61 322 0.0 0.0 0.00 0.00 0.00 92 1013.8
20260906093641 61 322 0.0 0.0 0.00 0.00 0.00 92 1013.8
20260906093140 61 322 0.0 0.0 0.00 0.00 0.00 92 1013.7
20260906092641 61 322 0.0 0.0 0.00 0.00 0.00 92 1013.6
20260906092143 61 322 0.0 0.0 0.00 0.00 0.00 92 1013.6
20260906091645 61 322 0.0 0.0 0.00 0.00 0.00 92 1013.6
20260906091143 61 322 0.0 0.0 0.00 0.00 0.00 92 1013.3
20260906090643 61 322 0.0 0.0 0.00 0.00 0.00 92 1013.3
20260906090145 61 322 0.0 0.0 0.00 0.00 0.00 92 1013.2
20260906085643 61 322 0.0 0.0 0.00 0.00 0.00 92 1013.2
20260906085143 61 322 0.0 0.0 0.00 0.00 0.00 92 1013.2
20260906084645 61 322 0.0 0.0 0.00 0.00 0.00 92 1013.2
20260906084143 61 322 0.0 0.0 0.00 0.00 0.00 92 1013.2
20260906083645 61 322 0.0 0.0 0.00 0.00 0.00 92 1013.4
20260906083145 61 322 0.0 0.0 0.00 0.00 0.00 92 1013.4
20260906082638 61 322 0.0 0.0 0.00 0.00 0.00 92 1013.4
20260906082137 61 322 0.0 0.0 0.00 0.00 0.00 92 1013.3
20260906081638 61 322 0.0 0.0 0.00 0.00 0.00 92 1013.3
20260906081137 61 322 0.0 0.0 0.00 0.00 0.00 92 1013.3
20260906080638 61 322 0.0 0.0 0.00 0.00 0.00 92 1013.2
20260906080139 61 322 0.0 0.0 0.00 0.00 0.00 92 1013.2
20260906075638 61 322 0.0 0.0 0.00 0.00 0.00 92 1013.2
20260906075139 61 322 0.0 0.0 0.00 0.00 0.00 92 1013.1
20260906074638 61 322 0.0 0.0 0.00 0.00 0.00 92 1013.0
20260906074138 61 322 0.0 0.0 0.00 0.00 0.00 92 1013.0
20260906073639 61 322 0.0 0.0 0.00 0.00 0.00 92 1013.0
20260906073138 61 322 0.0 0.0 0.00 0.00 0.00 92 1013.0
20260906072638 61 322 0.0 0.0 0.00 0.00 0.00 92 1013.0
20260906072137 61 322 0.0 0.0 0.00 0.00 0.00 92 1013.0
20260906071638 61 322 0.0 0.0 0.00 0.00 0.00 92 1013.0
20260906071138 62 322 0.0 0.0 0.00 0.00 0.00 92 1012.9
20260906070638 62 322 0.0 0.0 0.00 0.00 0.00 92 1012.8
20260906070137 62 322 0.0 0.0 0.00 0.00 0.00 92 1013.0
20260906065637 62 322 0.0 0.0 0.00 0.00 0.00 92 1013.0
20260906065138 62 322 0.0 0.0 0.00 0.00 0.00 92 1013.0
20260906064638 62 322 0.0 0.0 0.00 0.00 0.00 92 1013.0
20260906064138 62 322 0.0 0.0 0.00 0.00 0.00 92 1013.0
20260906063637 62 322 0.0 0.0 0.00 0.00 0.00 91 1013.1
20260906063139 62 322 0.0 0.0 0.00 0.00 0.00 91 1013.1
20260906062638 62 322 0.0 0.0 0.00 0.00 0.00 91 1013.1
20260906062139 62 322 0.0 0.0 0.00 0.00 0.00 91 1013.2
20260906061637 62 322 0.0 0.0 0.00 0.00 0.00 91 1013.1
20260906061138 62 322 0.0 0.0 0.00 0.00 0.00 91 1013.1
20260906060639 62 322 0.0 0.0 0.00 0.00 0.00 91 1013.0
20260906060138 62 322 0.0 0.0 0.00 0.00 0.00 91 1013.0
20260906055638 63 322 0.0 0.0 0.00 0.00 0.00 92 1013.1
20260906055137 63 322 0.0 0.0 0.00 0.00 0.00 92 1013.0
20260906054637 63 322 0.0 0.0 0.00 0.00 0.00 91 1013.0
20260906054137 63 322 0.0 0.0 0.00 0.00 0.00 91 1013.1
20260906053638 63 322 0.0 0.0 0.00 0.00 0.00 91 1013.1
20260906053137 63 322 0.0 0.0 0.00 0.00 0.00 91 1013.2
20260906052638 63 322 0.0 0.0 0.00 0.00 0.00 91 1013.2
20260906052137 63 322 0.0 0.0 0.00 0.00 0.00 91 1013.2
20260906051637 63 322 0.0 0.0 0.00 0.00 0.00 91 1013.3
20260906051138 63 322 0.0 0.0 0.00 0.00 0.00 91 1013.3
20260906050638 63 322 0.0 0.0 0.00 0.00 0.00 91 1013.3
20260906050139 63 322 0.0 0.0 0.00 0.00 0.00 91 1013.4
20260906045637 63 322 0.0 0.0 0.00 0.00 0.00 91 1013.4
20260906045137 63 322 0.0 0.0 0.00 0.00 0.00 90 1013.4
20260906044638 63 322 0.0 0.0 0.00 0.00 0.00 90 1013.5
20260906044138 63 322 0.0 0.0 0.00 0.00 0.00 90 1013.5
20260906043637 63 322 0.0 0.0 0.00 0.00 0.00 91 1013.5
20260906043137 64 322 0.0 0.0 0.00 0.00 0.00 91 1013.6
20260906042637 64 322 0.0 0.0 0.00 0.00 0.00 91 1013.5
20260906042138 64 322 0.0 0.0 0.00 0.00 0.00 91 1013.5
20260906041638 64 322 0.0 0.0 0.00 0.00 0.00 91 1013.5
20260906041138 64 322 0.0 0.0 0.00 0.00 0.00 91 1013.5
20260906040645 64 322 0.0 0.0 0.00 0.00 0.00 91 1013.4
20260906040139 64 322 0.0 0.0 0.00 0.00 0.00 91 1013.4
20260906035637 64 322 0.0 0.0 0.00 0.00 0.00 91 1013.5
20260906035138 64 322 0.0 0.0 0.00 0.00 0.00 91 1013.4
20260906034638 64 322 0.0 0.0 0.00 0.00 0.00 91 1013.4
20260906034139 64 322 0.0 0.0 0.00 0.00 0.00 91 1013.4
20260906033637 64 322 0.0 0.0 0.00 0.00 0.00 91 1013.6
20260906033137 65 322 0.0 0.0 0.00 0.00 0.00 91 1013.6
20260906032638 65 322 0.0 0.0 0.00 0.00 0.00 91 1013.6
20260906032137 65 322 0.0 0.0 0.00 0.00 0.00 91 1013.5
20260906031638 65 322 0.0 0.0 0.00 0.00 0.00 91 1013.4
20260906031137 65 322 0.0 0.0 0.00 0.00 0.00 91 1013.4
20260906030638 65 322 0.0 0.0 0.00 0.00 0.00 91 1013.4
20260906030138 65 322 0.0 0.0 0.00 0.00 0.00 91 1013.5
20260906025638 65 322 0.0 0.0 0.00 0.00 0.00 91 1013.3
20260906025137 65 322 0.0 0.0 0.00 0.00 0.00 90 1013.3
20260906024637 65 322 0.0 0.0 0.00 0.00 0.00 90 1013.4
20260906024137 66 322 0.0 0.0 0.00 0.00 0.00 90 1013.3
20260906023638 66 322 0.0 0.0 0.00 0.00 0.00 90 1013.3
20260906023138 66 322 0.0 0.0 0.00 0.00 0.00 90 1013.3
20260906022639 66 322 0.0 0.0 0.00 0.00 0.00 90 1013.4
20260906022140 66 322 0.0 0.0 0.00 0.00 0.00 89 1013.3
20260906021641 66 322 0.0 0.0 0.00 0.00 0.00 89 1013.2
20260906021141 67 322 0.0 0.0 0.00 0.00 0.00 89 1013.2
20260906020640 67 322 0.0 0.0 0.00 0.00 0.00 89 1013.2
20260906020140 67 322 0.0 0.0 0.00 0.00 0.00 89 1013.1
20260906015641 67 322 0.0 0.0 0.00 0.00 0.00 88 1013.1
20260906015140 67 322 0.0 0.0 0.00 0.00 0.00 88 1013.0
20260906014641 67 322 0.0 0.0 0.00 0.00 0.00 88 1012.9
20260906014142 68 322 0.0 0.0 0.00 0.00 0.00 88 1012.9
20260906013642 68 322 0.0 0.0 0.00 0.00 0.00 88 1012.8
20260906013141 68 322 0.0 0.0 0.00 0.00 0.00 87 1012.7
20260906012641 68 322 0.0 0.0 0.00 0.00 0.00 87 1012.8
20260906012144 68 322 0.0 0.0 0.00 0.00 0.00 86 1012.7
20260906011643 69 322 0.0 0.0 0.00 0.00 0.00 87 1012.8
20260906011146 69 322 0.0 0.0 0.00 0.00 0.00 86 1012.7
20260906010644 69 322 0.0 0.0 0.00 0.00 0.00 86 1012.6
20260906010144 69 322 0.0 0.0 0.00 0.00 0.00 85 1012.6
20260906005644 69 322 0.0 0.0 0.00 0.00 0.00 85 1012.7
20260906005143 69 322 0.0 0.0 0.00 0.00 0.00 86 1012.7
20260906004644 69 322 0.0 0.0 0.00 0.00 0.00 85 1012.6
20260906004144 69 322 0.0 0.0 0.00 0.00 0.00 85 1012.5
20260906003644 70 322 0.0 0.0 0.00 0.00 0.00 83 1012.5
20260906003144 70 322 0.0 0.0 0.00 0.00 0.00 82 1012.6
20260906002640 70 322 0.0 0.0 0.00 0.00 0.00 82 1012.5
20260906002141 70 322 0.0 0.0 0.00 0.00 0.00 82 1012.4
20260906001642 70 322 0.0 0.0 0.00 0.00 0.00 82 1012.3
20260906001141 71 322 0.0 0.0 0.00 0.00 0.00 83 1012.4
20260906000641 71 322 0.0 0.0 0.00 0.00 0.00 82 1012.3
20260906000142 71 322 0.0 0.0 0.00 0.00 0.00 82 1012.3
20260905235640 72 322 0.0 0.0 0.00 0.00 0.00 81 1012.2
20260905235141 72 322 0.0 0.0 0.00 0.00 0.00 80 1012.1
20260905234641 72 322 0.0 0.0 0.00 0.00 0.00 80 1012.1
20260905234140 73 322 0.0 0.0 0.00 0.00 0.00 77 1012.1
20260905233641 73 322 0.0 0.0 0.00 0.00 0.00 78 1011.9
20260905233140 73 322 0.0 0.0 0.00 0.00 0.00 80 1011.9
20260905232639 74 322 0.0 0.0 0.00 0.00 0.00 78 1011.9
20260905232139 74 322 0.0 0.0 0.00 0.00 0.00 80 1011.9
20260905231638 74 322 0.0 0.0 0.00 0.00 0.00 79 1011.8
20260905231137 74 322 0.0 0.0 0.00 0.00 0.00 78 1011.8
20260905230637 74 322 0.0 0.0 0.00 0.00 0.00 78 1011.7
20260905230138 74 322 0.0 0.0 0.00 0.00 0.00 78 1011.7
20260905225638 75 322 0.0 0.0 0.00 0.00 0.00 79 1011.8
20260905225138 75 322 0.0 0.0 0.00 0.00 0.00 79 1011.8
20260905224638 75 322 0.0 0.0 0.00 0.00 0.00 79 1011.7
20260905224137 75 322 0.0 0.0 0.00 0.00 0.00 79 1011.7
20260905223638 75 322 0.0 0.0 0.00 0.00 0.00 78 1011.7
20260905223137 75 322 0.0 0.0 0.00 0.00 0.00 77 1011.6
20260905222638 75 322 0.0 0.0 0.00 0.00 0.00 76 1011.5
20260905222156 75 322 0.0 0.0 0.00 0.00 0.00 76 1011.5
20260905221655 76 322 0.0 0.0 0.00 0.00 0.00 76 1011.5
20260905221155 76 322 0.0 0.0 0.00 0.00 0.00 76 1011.5
20260905220656 76 322 0.0 0.0 0.00 0.00 0.00 76 1011.4
20260905220155 77 322 0.0 0.0 0.00 0.00 0.00 76 1011.3
20260905215655 77 322 0.0 0.0 0.00 0.00 0.00 73 1011.4
20260905215156 77 322 0.0 1.0 0.00 0.00 0.00 72 1011.4
20260905214656 77 322 0.0 1.0 0.00 0.00 0.00 72 1011.2
20260905214156 77 322 0.0 0.0 0.00 0.00 0.00 73 1011.1
20260905213659 78 322 0.0 0.0 0.00 0.00 0.00 74 1011.0
20260905213156 78 322 0.0 0.0 0.00 0.00 0.00 74 1011.0
20260905212656 78 322 0.0 1.0 0.00 0.00 0.00 74 1010.9
20260905212504 78 322 0.0 1.0 0.00 0.00 0.00 75 1010.8
20260905212138 78 322 0.0 1.0 0.00 0.00 0.00 71 1010.8
20260905211638 78 322 0.0 0.0 0.00 0.00 0.00 72 1010.7
20260905211138 78 322 0.0 1.0 0.00 0.00 0.00 71 1010.8
20260905210639 78 322 0.0 1.0 0.00 0.00 0.00 69 1010.8
20260905210139 78 322 0.0 1.0 0.00 0.00 0.00 71 1010.8
20260905205638 78 322 0.0 1.0 0.00 0.00 0.00 69 1010.8
20260905205138 78 322 0.0 1.0 0.00 0.00 0.00 71 1010.8
20260905204638 78 322 0.0 1.0 0.00 0.00 0.00 70 1010.9
20260905204137 78 322 0.0 1.0 0.00 0.00 0.00 69 1010.8
20260905203638 78 322 0.0 1.0 0.00 0.00 0.00 72 1010.9
20260905203139 78 322 0.0 1.0 0.00 0.00 0.00 70 1010.9
20260905202639 77 322 0.0 0.0 0.00 0.00 0.00 70 1010.9
20260905202143 78 322 0.0 0.0 0.00 0.00 0.00 72 1011.0
20260905201642 78 322 0.0 1.0 0.00 0.00 0.00 72 1011.0
20260905201141 78 322 0.0 1.0 0.00 0.00 0.00 74 1011.0
20260905200641 78 322 0.0 1.0 0.00 0.00 0.00 73 1011.0
20260905200140 79 322 0.0 0.0 0.00 0.00 0.00 68 1011.1
20260905195641 79 322 0.0 0.0 0.00 0.00 0.00 69 1011.2
20260905195140 79 322 0.0 1.0 0.00 0.00 0.00 71 1011.2
20260905194641 79 322 0.0 1.0 0.00 0.00 0.00 70 1011.2
20260905194143 79 322 0.0 1.0 0.00 0.00 0.00 69 1011.2
20260905193641 80 322 0.0 1.0 0.00 0.00 0.00 67 1011.3
20260905193141 80 321 0.0 1.0 0.00 0.00 0.00 69 1011.3